Location: Janeiro
(34.9957°N, 76.7652°W)
Time: 01:57:19
(UTC+00:00)

STARLINK-36 - Pass Details

Date: 14 December 2019
Orbit: 529 x 530 km, 53.0° (Epoch: 22 January)

Event Time Altitude Azimuth Distance (km) Brightness Sun altitude
Rises 23:22:02 0° 215° (SW) 2,649 8.0 -17.0°
Reaches altitude 10° 23:24:15 10° 211° (SSW) 1,764 6.9 -17.4°
Maximum altitude 23:28:11 58° 132° (SE) 617 3.6 -18.2°
Enters shadow 23:29:04 45° 82° (E) 722 3.7 -18.4°
